Location: Benešov nad ?ernou
(48.7287°N, 14.6264°E)
Time: 11:34:17
(UTC+00:00)

Daily predictions for brighter satellites

Satellite Brightness Start Highest point End
(mag) Time Altitude Azimuth Time Altitude Azimuth Time Altitude Azimuth
ATLAS CENTAUR R/B 3.7 18:29:24 10° N 18:30:29 11° NNE 18:31:35 10° NE
CSL-04 Debris 4.3 18:25:57 10° SSE 18:31:19 65° ENE 18:36:45 10° N
Cosmos 1346 Rocket 3.5 18:28:17 10° SSW 18:32:03 58° WNW 18:35:49 10° N
ATLAS 3B R/B 3.0 18:29:17 10° SSW 18:36:04 52° ESE 18:43:19 10° NE
Cosmos 371 Rocket 3.9 18:33:12 10° N 18:37:44 40° ENE 18:42:14 10° SE
SL-4 R/B 2.3 18:35:18 10° WNW 18:38:56 51° N 18:42:21 10° E
COSMOS 2455 4.0 18:33:48 10° NNW 18:39:08 31° NE 18:44:27 10° E
CSL-04 Rocket 3.7 18:34:21 10° SSE 18:39:48 70° ENE 18:45:15 10° N
SJ-6B 3.8 18:36:51 10° S 18:40:41 49° W 18:44:35 10° NNW
In-Cosmos 22 Rocket 4.3 18:38:35 10° NNW 18:44:02 83° W 18:49:37 10° S
Cosmos 2181 Rocket 4.2 18:40:09 10° SSW 18:46:21 80° W 18:52:42 10° N
Okean 2 Rocket 4.0 18:43:10 10° SSE 18:47:06 30° E 18:51:02 10° NNE
MOS 1-B 4.4 18:42:58 10° SSE 18:48:47 88° WSW 18:54:38 10° NNW
Cosmos 1992 Rocket 4.1 18:43:57 10° SSW 18:49:10 88° WNW 18:54:26 10° NNE
CZ-4C R/B 3.8 18:43:42 10° NW 18:49:46 37° NNE 18:57:07 10° E
SPOT 5 3.9 18:46:59 10° SE 18:51:42 33° ENE 18:56:20 10° N
Cosmos 2297 Rocket 3.0 18:48:53 10° NNW 18:54:07 37° NE 18:58:46 13° ESE
Cosmos 2369 Rocket 3.9 18:52:45 10° WSW 18:57:59 37° NW 19:03:14 10° NNE
Cosmos 1503 Rocket 4.2 18:52:47 10° NNW 18:58:09 64° ENE 19:03:17 11° SE
Cosmos 1656 4.4 18:56:12 10° SSE 19:01:00 31° ESE 19:05:46 10° NE
Cosmos 1354 Rocket 4.3 18:55:47 10° NNW 19:01:01 53° ENE 19:05:34 13° SE
BlueWalker 3 2.6 18:58:19 10° SSW 19:01:44 32° SE 19:05:12 10° ENE
Terra 3.2 19:01:25 13° ESE 19:04:25 23° ENE 19:08:06 10° N
ATLAS 5 CENTAUR R/B 1.4 19:02:41 10° SW 19:06:01 65° NW 19:09:47 10° NE
PSLV R/B 4.2 19:04:01 10° S 19:07:42 61° W 19:11:28 10° NNW
Cosmos 2098 Rocket 3.5 19:03:33 10° SSW 19:08:15 64° W 19:12:05 10° N
CARTOSAT-1 3.7 19:04:08 10° S 19:08:24 74° WSW 19:12:41 10° NNW
Iridium 4 Rocket 4.3 19:04:24 11° SSE 19:09:21 38° E 19:14:40 10° NNE
Sich 1 Rocket 3.7 19:06:17 10° S 19:10:34 51° E 19:14:54 10° NNE
Okean 1 Rocket 3.8 19:06:57 12° SSE 19:10:37 33° E 19:14:37 10° NNE
Okean-O 2.6 19:11:08 11° SSE 19:15:23 75° ENE 19:19:48 10° N
CZ-4B R/B 4.3 19:12:14 10° S 19:17:38 45° W 19:22:58 10° NNW
Ariane Rocket 4.0 19:16:23 17° ESE 19:19:21 30° ENE 19:23:43 10° N
Cosmos 2263 Rocket 4.1 19:16:38 10° N 19:20:22 18° NE 19:24:04 10° ENE
CZ-4C R/B 2.9 19:17:55 10° NNE 19:21:19 58° ESE 19:24:38 10° S
Nadezhda 3 Rocket 4.0 19:16:21 10° S 19:22:31 90° WNW 19:28:45 10° N
Cosmos 1437 Rocket 4.2 19:21:10 10° NNE 19:24:16 22° ENE 19:25:29 19° E
USA 186 4.1 19:21:53 10° SSW 19:24:17 21° W 19:26:40 10° NW
Genesis I 2.9 19:21:15 10° NW 19:24:54 88° NE 19:26:55 25° SE
Cosmos 44 4.1 19:20:39 10° S 19:25:30 35° ESE 19:30:20 10° NE
USA 267 3.6 19:19:10 10° NE 19:25:40 69° NNW 19:32:10 10° WSW
BREEZE-M R/B 1.6 19:24:20 10° WNW 19:26:52 77° SSW 19:27:40 37° ESE
Cosmos 1605 Rocket 4.3 19:24:01 10° N 19:30:13 50° ENE 19:34:28 20° SE
Okean O Rocket 2.8 19:26:11 10° S 19:30:18 41° W 19:34:29 10° NNW
Aureole 1 Rocket 4.0 19:31:50 10° N 19:34:02 18° ENE 19:34:29 18° ENE
CZ-4 R/B 4.2 19:33:25 10° SW 19:35:42 15° W 19:37:57 10° NW
Cosmos 540 Rocket 4.5 19:39:04 23° ESE 19:39:42 24° E 19:43:45 10° NE
Cosmos 1536 Rocket 3.9 19:37:38 10° NNW 19:42:02 66° W 19:45:49 14° S
Resurs 01 Rocket 3.4 19:41:18 10° SSW 19:45:11 30° W 19:49:05 10° NNW
IRS-1C Rocket 4.1 19:42:38 19° SSE 19:46:29 89° ENE 19:51:49 10° NNW
MOS 1 Rocket 4.3 19:46:11 23° E 19:47:22 26° ENE 19:51:01 10° N
Cosmos 2058 4.1 19:46:41 10° NNE 19:50:02 24° ENE 19:50:33 24° E
CENTAUR R/B 3.8 19:43:32 10° NW 19:51:04 47° NE 19:57:39 18° E
NOSS 3-1 (A) 3.5 19:47:36 10° SW 19:52:38 67° NW 19:58:47 10° NE
ERS-1 Rocket 2.9 19:51:26 28° SSE 19:54:05 70° ENE 19:59:05 10° N
SPOT 3 Rocket 3.8 19:55:09 31° SE 19:57:29 55° ENE 20:02:32 10° N
Tiangong 0.5 19:57:04 10° SW 19:57:17 11° SW 19:57:17 11° SW
Cosmos 1934 Rocket 4.3 19:54:48 10° NNW 20:00:53 66° W 20:06:25 13° S
USA 229 DEB 3.5 19:55:23 10° SSW 20:01:24 62° SE 20:08:03 10° NE
USA 229 3.5 19:55:29 10° SSW 20:01:30 62° SE 20:08:09 10° NE
USA 234 4.3 19:58:35 17° S 20:02:58 35° SW 20:08:51 10° WNW
USA 281 4.0 19:59:01 13° S 20:04:44 47° WSW 20:11:04 10° NW
Cosmos 1727 Rocket 4.4 20:04:27 31° SE 20:06:47 43° E 20:12:37 10° NNE
Landsat 5 4.3 20:03:29 10° NNE 20:06:58 32° E 20:06:58 32° E
ATLAS CENTAUR R/B 1.9 20:05:39 10° NNW 20:09:13 40° NE 20:09:58 35° ENE
Cosmos 2227 Rocket 2.2 20:04:22 10° NNW 20:10:04 68° ENE 20:12:21 37° SE
Cosmos 1980 Rocket 3.5 20:13:33 22° E 20:13:33 22° E 20:16:51 10° NE
Cosmos 1892 Rocket 3.4 20:12:42 10° N 20:17:03 85° E 20:18:10 50° SSE
Cosmos 292 Rocket 4.4 20:12:56 10° N 20:17:26 41° ENE 20:18:28 36° E
SL-4 R/B 1.4 20:14:20 10° WNW 20:17:55 88° SSW 20:17:57 87° SSE
Landsat 4 4.4 20:17:01 34° SW 20:18:01 45° W 20:21:26 10° NNW
Cosmos 1697 Rocket 2.8 20:18:57 35° SSE 20:21:00 53° ESE 20:26:31 10° NE
Cosmos 2360 4.1 20:17:18 14° SSW 20:22:09 71° ESE 20:27:51 10° NNE
Cosmos 1937 Rocket 4.2 20:17:12 10° NNW 20:22:14 40° ENE 20:23:39 34° E
COSMOS 2455 2.9 20:19:33 10° NW 20:25:35 70° WSW 20:27:59 37° SSE
ATLAS 3B R/B 3.7 20:19:53 10° WSW 20:26:56 52° NW 20:34:25 10° NE
SPOT 5 4.1 20:26:04 18° SSW 20:29:36 41° W 20:34:34 10° NNW
MetOp-A 3.4 20:30:40 58° ENE 20:30:40 58° ENE 20:34:22 10° N
Cosmos 405 Rocket 2.7 20:33:26 69° SW 20:33:46 75° WNW 20:37:30 10° N
Cosmos 1898 Rocket 3.5 20:29:43 10° NNW 20:34:58 65° ENE 20:36:04 51° ESE
Cosmos 2228 4.5 20:38:16 24° ENE 20:38:16 24° ENE 20:40:38 10° NNE
Spot 2 Rocket 3.7 20:36:25 39° SSW 20:38:12 64° WSW 20:43:14 10° NNW
Cosmos 2297 Rocket 3.0 20:32:55 10° NW 20:38:16 44° WSW 20:40:36 29° SSW
CZ-4C R/B 2.9 20:31:54 10° NW 20:39:01 86° SW 20:42:37 38° SE
BlueWalker 3 2.2 20:36:01 10° WSW 20:39:49 66° NNW 20:40:37 50° NE
USA 81 3.9 20:38:46 53° SSE 20:39:57 73° E 20:45:13 10° N
ARIANE 5 R/B 3.9 20:39:49 28° ENE 20:39:58 28° ENE 20:43:47 10° N
Terra 2.4 20:40:08 36° SSW 20:41:41 52° W 20:46:19 10° NNW
Meteor 2-13 Rocket 4.5 20:43:00 47° SE 20:44:32 61° E 20:50:36 10° NNE
Meteor 2-1 Rocket 4.2 20:45:49 54° SE 20:46:31 59° E 20:51:56 10° NNE
Cosmos 1455 Rocket 3.4 20:46:45 44° SW 20:47:57 62° WNW 20:52:19 10° N
Spot 1 4.1 20:43:34 10° NNE 20:48:15 83° WNW 20:49:02 60° SSW
Cosmos 1725 Rocket 4.4 20:43:24 10° N 20:49:19 44° ENE 20:50:29 40° ESE
Cosmos 1459 Rocket 3.9 20:44:38 10° N 20:50:42 67° ENE 20:52:04 52° SE
ATLAS 5 CENTAUR R/B 4.3 20:48:29 10° WNW 20:50:47 16° NNW 20:53:18 10° NNE
Cosmos 2219 3.1 20:47:46 10° NNW 20:53:28 83° ENE 20:54:33 60° SE
Ariane Rocket 3.8 20:56:30 32° SW 20:58:07 42° W 21:02:56 10° NNW
Cosmos 1437 Rocket 3.9 20:56:30 10° NNW 21:00:05 35° W 21:00:22 35° WSW
Cosmos 1763 Rocket 4.0 20:57:45 20° SW 21:01:09 56° WNW 21:06:14 10° NNE
Cosmos 2263 Rocket 2.1 20:59:43 10° NNW 21:05:21 70° ENE 21:06:06 62° ESE
Cosmos 44 4.4 21:01:21 10° WSW 21:06:36 50° NW 21:11:46 10° NNE
USA 267 4.3 21:02:03 10° ENE 21:08:12 44° N 21:14:20 10° WNW
Cosmos 2082 3.6 21:06:09 10° NNW 21:11:51 77° ENE 21:12:29 68° ESE
Cosmos 2173 Rocket 4.0 21:09:08 10° N 21:15:32 80° W 21:17:01 55° S
NOSS 3-2 (A) 4.0 21:09:47 10° NW 21:17:03 76° NE 21:19:59 45° ESE
Meteor 2-3 Rocket 3.6 21:13:22 10° NNW 21:19:04 88° ENE 21:19:41 73° SSE
Cosmos 540 Rocket 4.1 21:18:45 31° WSW 21:20:54 52° WNW 21:25:55 10° NNE
Cosmos 1606 4.2 21:23:39 31° N 21:23:39 31° N 21:25:40 10° N
MOS 1 Rocket 4.2 21:25:22 35° W 21:25:23 35° W 21:29:26 10° NNW
Cosmos 2058 4.3 21:23:05 10° NNW 21:26:27 31° W 21:26:27 31° W
Meteor 2-15 4.4 21:22:55 10° NNW 21:29:03 78° W 21:29:58 65° SSW
Cosmos 1626 Rocket 4.2 21:25:08 10° NNW 21:29:06 50° WNW 21:29:06 50° WNW
Cosmos 372 Rocket 4.3 21:26:57 10° NNW 21:32:04 55° WSW 21:32:09 54° WSW
Meteor 2-15 Rocket 4.3 21:26:12 10° N 21:32:23 85° E 21:33:02 73° SSE
Cosmos 1864 Rocket 4.3 21:28:46 10° N 21:34:58 85° W 21:35:41 71° S
Cosmos 1802 Rocket 4.0 21:31:44 10° NNW 21:38:00 74° W 21:38:59 62° SSW
SL-16 R/B 3.8 21:41:08 22° ENE 21:41:08 22° ENE 21:43:55 10° NE
CENTAUR R/B 3.3 21:34:12 10° NW 21:42:26 71° SW 21:44:48 52° S
Cosmos 841 Rocket 3.5 21:43:35 71° WNW 21:43:37 71° WNW 21:48:46 10° NNE
Cosmos 2016 Rocket 3.9 21:39:11 10° NNW 21:45:18 77° W 21:45:55 70° SW
ATLAS CENTAUR R/B 3.5 21:43:38 10° WNW 21:45:04 18° WNW 21:45:04 18° WNW
Cosmos 1844 Rocket 3.6 21:44:33 10° NNW 21:49:48 38° NE 21:50:30 37° ENE
H-2A R/B 3.9 21:54:16 33° NNW 21:54:16 33° NNW 21:56:28 10° NNW
Cosmos 2227 Rocket 3.8 21:49:19 10° NW 21:53:34 22° W 21:54:10 22° WSW
Cosmos 1980 Rocket 2.4 21:55:13 58° W 21:56:01 65° WNW 22:01:40 10° NNE
Cosmos 967 Rocket 4.4 21:54:06 10° NW 22:00:33 73° WSW 22:00:44 73° SW
Cosmos 2278 4.4 22:02:49 43° ENE 22:02:49 43° ENE 22:06:59 10° NE
Cosmos 1697 Rocket 4.2 22:00:32 12° WSW 22:05:14 32° NW 22:10:19 10° NNE
Cosmos 2123 Rocket 4.4 22:05:46 50° WSW 22:06:57 58° WNW 22:13:13 10° N
Cosmos 2151 4.3 22:03:54 10° N 22:06:35 36° NNE 22:06:35 36° NNE
Meteor 1-27 4.2 22:10:41 73° WNW 22:10:41 73° WNW 22:16:09 10° N
CZ-2C R/B 4.5 22:06:32 10° N 22:10:47 50° NW 22:10:47 50° NW
ARIANE 5 R/B 4.0 22:17:17 33° WNW 22:17:17 33° WNW 22:20:26 10° NNW
CZ-4C R/B 4.3 22:21:07 10° WNW 22:27:05 26° WSW 22:27:43 26° WSW
Cosmos 2227 4.4 22:22:40 10° NNW 22:27:45 66° WNW 22:27:45 66° WNW
Cosmos 2369 4.4 22:27:50 44° W 22:28:46 48° NW 22:34:15 10° NNE
Lacrosse 4 Rocket 3.3 22:33:41 25° NNE 22:33:41 25° NNE 22:35:30 10° NNE
H-2A R/B 3.8 22:28:46 10° NNE 22:30:48 26° NE 22:30:48 26° NE
NOSS 3-2 (C) 3.9 22:25:49 10° NW 22:33:14 83° SW 22:34:32 67° SSE
ALOS 2 3.8 22:35:59 40° NNW 22:35:59 40° NNW 22:38:52 10° NNW
Cosmos 2233 Rocket 4.4 22:29:14 10° NNW 22:35:09 49° W 22:35:19 49° W
Cosmos 1447 Rocket 4.5 22:42:34 71° W 22:42:39 71° W 22:48:49 10° N
Cosmos 1814 Rocket 4.5 22:45:04 56° NNW 22:45:04 56° NNW 22:49:37 10° NNE
Cosmos 1464 Rocket 4.0 22:38:29 10° N 22:44:52 71° E 22:44:59 71° E
Cosmos 2058 Rocket 4.4 22:47:28 37° N 22:47:28 37° N 22:50:09 10° N
Cosmos 2263 Rocket 4.0 22:44:37 10° NW 22:47:47 20° W 22:47:47 20° W
Cosmos 2360 Rocket 3.1 22:51:06 39° ENE 22:51:06 39° ENE 22:55:08 10° NE
USA 267 4.0 22:44:16 10° E 22:50:32 50° NNE 22:56:48 10° WNW
Cosmos 909 Rocket 4.5 22:55:34 65° SW 22:56:59 89° ESE 23:06:20 10° NE
Meteor 2-21 4.4 22:58:06 74° ENE 22:58:06 74° ENE 23:04:05 10° NNE
Meteor 1-20 Rocket 4.3 22:54:00 10° N 22:59:08 73° NNE 22:59:08 73° NNE
Cosmos 1513 Rocket 4.4 22:53:47 10° NNW 22:59:38 73° WNW 22:59:38 73° WNW
Cosmos 1570 Rocket 4.5 23:02:43 58° NNE 23:02:43 58° NNE 23:06:54 10° NNE
Cosmos 2333 Rocket 3.0 23:03:47 43° ENE 23:03:47 43° ENE 23:08:01 10° NE
Cosmos 2322 Rocket 2.5 23:03:59 60° NE 23:03:59 60° NE 23:08:38 10° NNE
Lacrosse 5 3.3 23:05:57 31° ENE 23:05:57 31° ENE 23:08:38 10° ENE
Cosmos 2278 Rocket 4.5 22:59:46 10° N 23:03:54 20° NE 23:08:01 10° E
Cosmos 2219 Rocket 3.5 23:05:42 29° E 23:05:42 29° E 23:09:20 10° NE
Cosmos 2034 Rocket 4.0 23:00:49 10° N 23:07:00 71° E 23:07:00 71° E
Meteor 1-25 Rocket 4.3 23:06:01 10° N 23:11:03 71° N 23:11:03 71° N
Geosat 4.4 23:20:32 60° NNE 23:20:32 60° NNE 23:25:02 10° NNW
SL-16 R/B 2.6 23:22:57 56° WNW 23:22:58 56° WNW 23:28:35 10° NNE
Cosmos 1844 4.4 23:19:03 10° NW 23:23:28 47° WNW 23:23:28 47° WNW
Cosmos 1634 Rocket 4.4 23:21:40 10° N 23:27:54 55° ENE 23:28:37 52° E
USA 238 DEB 3.9 23:25:38 10° NW 23:32:54 64° SW 23:32:58 64° SW
USA 238 3.9 23:25:44 10° NW 23:33:00 65° SW 23:33:05 65° SW
Cosmos 1844 Rocket 3.8 23:28:30 10° NW 23:32:08 33° WNW 23:32:08 33° WNW
IDEFIX/ARIANE 42P 4.5 23:35:54 10° NE 23:39:26 18° E 23:39:49 18° E
Resurs 1-4 Rocket 4.2 23:36:39 10° NE 23:39:44 15° E 23:40:30 15° E
Cosmos 158 Rocket 4.4 23:41:25 56° N 23:41:25 56° N 23:45:30 10° NNE
Cosmos 1943 Rocket 4.4 23:37:08 10° N 23:41:28 22° NE 23:45:48 10° E
Meteor 2-2 Rocket 4.3 23:48:58 77° WNW 23:48:58 77° WNW 23:54:48 10° N
Timation 2 Rocket 4.5 23:42:50 10° NW 23:48:19 48° W 23:48:19 48° W
